Flag for U.S.A. Weather past 2 weeks in Pontiac, Michigan, U.S.A.

Now
43 °F

Overcast.


Feels Like: 37 °F
Forecast: 39 / 53 °F
Wind: 12 mph from North

Location: Oakland County International Airport

Current Time: Apr 27, 2015 at 12:40:05 PM

Latest Report: Apr 27, 2015 at 11:53 AM


Visibility: 10 mi

Pressure: 30.02 "Hg

Humidity: 71%

Dew point: 34 °F

Location of PontiacLocation

Historic Weather in Pontiac — Graph

°F

Pontiac temperature yesterday

Maximum temperature yesterday: 55 °F (at 5:53 PM)
Minimum temperature yesterday: 33 °F (at 4:53 AM)
Average temperature yesterday: 45 °F

Past Weeks' High & Low Weather Summary

 TemperatureHumidityPressure
High74 °F (Apr 17, 4:53 PM)100% (Apr 20, 5:00 AM)30.39 "Hg (Apr 20, 5:00 AM)
Low27 °F (Apr 24, 4:53 AM)17% (Apr 15, 3:53 PM)29.19 "Hg (Apr 20, 5:53 AM)
Average48 °F56%29.94 "Hg
* Reported Apr 12 10:53 AM — Apr 27 10:53 AM, Pontiac, Weather by CustomWeather, © 2015

Note: Actual official high and low records may vary slightly from our data, if they occured in-between our weather recording intervals... More about our weather records

Advertising

Pontiac weather history for previous 24 hours

 ConditionsComfort  
Time TempWeatherWind HumidityBarometerVisibility
10:53 AM
Mon, Apr 27
43 °FMostly cloudy.15 mph68%30.00 "Hg10 mi
9:53 AM42 °FOvercast.18 mph73%29.98 "Hg10 mi
8:53 AM40 °FOvercast.14 mph80%29.96 "Hg10 mi
7:53 AM40 °FMostly cloudy.10 mph83%29.96 "Hg10 mi
6:53 AM39 °FMostly cloudy.12 mph86%29.94 "Hg10 mi
5:53 AM41 °FLight rain. Mostly cloudy.10 mph80%29.92 "Hg10 mi
4:53 AM41 °FMostly cloudy.9 mph74%29.92 "Hg10 mi
3:53 AM41 °FMostly cloudy.8 mph70%29.91 "Hg10 mi
2:53 AM39 °FMostly cloudy.6 mph79%29.92 "Hg10 mi
1:53 AM38 °FClear.5 mph79%29.93 "Hg10 mi
12:53 AM39 °FClear.6 mph70%29.93 "Hg10 mi
11:53 PM
Sun, Apr 26
42 °FClear.3 mph65%29.94 "Hg10 mi
10:53 PM43 °FPassing clouds.8 mph62%29.93 "Hg10 mi
9:53 PM45 °FPassing clouds.10 mph58%29.93 "Hg10 mi
8:53 PM48 °FScattered clouds.7 mph46%29.90 "Hg10 mi
7:53 PM52 °FPassing clouds.9 mph40%29.90 "Hg10 mi
6:53 PM53 °FScattered clouds.13 mph38%29.90 "Hg10 mi
5:53 PM55 °FScattered clouds.10 mph35%29.90 "Hg10 mi
4:53 PM53 °FPartly sunny.14 mph39%29.91 "Hg10 mi
3:53 PM53 °FPartly sunny.13 mph41%29.90 "Hg10 mi
2:53 PM53 °FOvercast.8 mph39%29.91 "Hg10 mi
1:53 PM54 °FOvercast.10 mph35%29.91 "Hg10 mi
12:53 PM53 °FPartly sunny.13 mph37%29.92 "Hg10 mi
Weather by CustomWeather, © 2015

See weather overviewHow to use our weather pages